EWG5T EGPH-EDDL

Flight info

Callsign EWG5T
Flight time N/A
Altitude 25000
Route TLA Y96 OTBUN/N0457F370 DCT NATEB DCT TOWTE DCT BUZDE DCT GODOS DCT AMGOD DCT PAM P62 PISAP PISAP1A
Aircraft A319/M-SDE3FGHIRWY/LB1

Departure

Time 2026-04-20 18:35
Airport Edinburgh Airport (EGPH)

Arrival

Time N/A
Airport Düsseldorf Airport (EDDL)
Time Latitude Longitude Altitude Speed Heading
2026-04-20 18:13 55.94938 -3.35988 114 ft 0 kts 254°
2026-04-20 18:25 55.94943 -3.35957 113 ft 4 kts 248°
2026-04-20 18:25 55.94955 -3.35914 113 ft 4 kts 237°
2026-04-20 18:26 55.94970 -3.35875 112 ft 4 kts 236°
2026-04-20 18:26 55.94976 -3.35860 112 ft 0 kts 241°
2026-04-20 18:28 55.94976 -3.35867 112 ft 1 kts 266°
2026-04-20 18:29 55.94988 -3.35874 116 ft 2 kts
2026-04-20 18:29 55.95011 -3.35838 116 ft 7 kts 42°
2026-04-20 18:29 55.95057 -3.35865 115 ft 10 kts 296°
2026-04-20 18:29 55.95094 -3.36007 116 ft 15 kts 290°
2026-04-20 18:30 55.95129 -3.36195 113 ft 16 kts 286°
2026-04-20 18:30 55.95101 -3.36380 115 ft 17 kts 238°
2026-04-20 18:30 55.95045 -3.36543 114 ft 15 kts 238°
2026-04-20 18:30 55.94988 -3.36711 114 ft 16 kts 239°
2026-04-20 18:31 55.94928 -3.36886 114 ft 17 kts 239°
2026-04-20 18:31 55.94866 -3.37075 116 ft 18 kts 237°
2026-04-20 18:31 55.94800 -3.37269 115 ft 19 kts 239°
2026-04-20 18:31 55.94731 -3.37472 115 ft 19 kts 239°
2026-04-20 18:32 55.94660 -3.37679 113 ft 20 kts 239°
2026-04-20 18:32 55.94586 -3.37897 113 ft 21 kts 238°
2026-04-20 18:32 55.94509 -3.38123 115 ft 22 kts 238°
2026-04-20 18:32 55.94430 -3.38358 116 ft 22 kts 239°
2026-04-20 18:33 55.94348 -3.38598 115 ft 23 kts 239°
2026-04-20 18:33 55.94284 -3.38789 116 ft 14 kts 241°
2026-04-20 18:33 55.94325 -3.38907 116 ft 13 kts 327°
2026-04-20 18:33 55.94407 -3.38967 114 ft 13 kts 14°
2026-04-20 18:34 55.94462 -3.38837 114 ft 14 kts 59°
2026-04-20 18:34 55.94551 -3.38578 113 ft 54 kts 58°
2026-04-20 18:34 55.94886 -3.37592 113 ft 128 kts 59°
2026-04-20 18:34 55.95404 -3.36065 540 ft 148 kts 58°
2026-04-20 18:35 55.95928 -3.34523 1281 ft 148 kts 59°
2026-04-20 18:35 55.96712 -3.33068 1711 ft 173 kts 45°
2026-04-20 18:35 55.97657 -3.31555 2082 ft 197 kts 45°
2026-04-20 18:35 55.98741 -3.29826 2506 ft 220 kts 44°
2026-04-20 18:36 55.99943 -3.27907 2939 ft 241 kts 44°
2026-04-20 18:36 56.01212 -3.25876 3849 ft 248 kts 44°
2026-04-20 18:36 56.02500 -3.23810 5019 ft 251 kts 43°
2026-04-20 18:36 56.03811 -3.21703 6077 ft 257 kts 43°
2026-04-20 18:37 56.04888 -3.19160 7043 ft 262 kts 70°
2026-04-20 18:37 56.05038 -3.15927 8081 ft 264 kts 96°
2026-04-20 18:37 56.04804 -3.12699 9153 ft 266 kts 100°
2026-04-20 18:37 56.04157 -3.09594 10178 ft 271 kts 123°
2026-04-20 18:38 56.02820 -3.07211 11090 ft 279 kts 145°
2026-04-20 18:38 56.00949 -3.05795 11490 ft 306 kts 160°
2026-04-20 18:38 55.98847 -3.04576 11854 ft 329 kts 160°
2026-04-20 18:38 55.96629 -3.03324 12534 ft 339 kts 161°
2026-04-20 18:39 55.94361 -3.02047 13387 ft 344 kts 160°
2026-04-20 18:39 55.92069 -3.00743 14242 ft 348 kts 160°
2026-04-20 18:39 55.89783 -2.99426 15000 ft 352 kts 160°
2026-04-20 18:39 55.87443 -2.98067 15787 ft 356 kts 160°
2026-04-20 18:40 55.85048 -2.96672 16571 ft 360 kts 160°
2026-04-20 18:40 55.82687 -2.95296 17325 ft 364 kts 160°
2026-04-20 18:40 55.80274 -2.93890 18092 ft 367 kts 160°
2026-04-20 18:40 55.77828 -2.92470 18824 ft 372 kts 160°
2026-04-20 18:41 55.75358 -2.91043 19504 ft 375 kts 160°
2026-04-20 18:41 55.72861 -2.89610 20144 ft 380 kts 160°
2026-04-20 18:41 55.70335 -2.88164 20811 ft 383 kts 160°
2026-04-20 18:41 55.67782 -2.86699 21447 ft 387 kts 160°
2026-04-20 18:42 55.65244 -2.85237 22073 ft 391 kts 160°
2026-04-20 18:42 55.62650 -2.83742 22705 ft 394 kts 160°
2026-04-20 18:42 55.60031 -2.82235 23301 ft 398 kts 160°
2026-04-20 18:42 55.57393 -2.80720 23918 ft 400 kts 160°
2026-04-20 18:43 55.54735 -2.79204 24389 ft 404 kts 161°
2026-04-20 18:43 55.52047 -2.77680 24846 ft 407 kts 161°
2026-04-20 18:43 55.49340 -2.76145 25321 ft 410 kts 161°
2026-04-20 18:43 55.46608 -2.74593 25700 ft 415 kts 161°
2026-04-20 18:44 55.43844 -2.73026 26115 ft 420 kts 161°
2026-04-20 18:44 55.41082 -2.71317 26549 ft 422 kts 155°
2026-04-20 18:44 55.38525 -2.68912 27008 ft 423 kts 145°
2026-04-20 18:44 55.36214 -2.65731 27463 ft 424 kts 136°
2026-04-20 18:45 55.34230 -2.61874 27831 ft 428 kts 126°
2026-04-20 18:45 55.32626 -2.57445 28132 ft 433 kts 118°
2026-04-20 18:45 55.31148 -2.52814 28539 ft 436 kts 119°
2026-04-20 18:45 55.29648 -2.48165 28914 ft 439 kts 119°
2026-04-20 18:46 55.28130 -2.43495 29299 ft 442 kts 119°
2026-04-20 18:46 55.26595 -2.38791 29627 ft 446 kts 120°
2026-04-20 18:46 55.25046 -2.34056 29943 ft 450 kts 120°
2026-04-20 18:46 55.23503 -2.29338 30215 ft 455 kts 120°
2026-04-20 18:47 55.21923 -2.24494 30430 ft 461 kts 119°
2026-04-20 18:47 55.20325 -2.19601 30685 ft 464 kts 119°
2026-04-20 18:47 55.18725 -2.14719 31151 ft 461 kts 119°
2026-04-20 18:47 55.17130 -2.09864 31591 ft 460 kts 119°
2026-04-20 18:48 55.15535 -2.05013 31976 ft 460 kts 119°
2026-04-20 18:48 55.13935 -2.00163 32331 ft 461 kts 119°
2026-04-20 18:48 55.12328 -1.95310 32689 ft 462 kts 120°
2026-04-20 18:48 55.10713 -1.90450 33050 ft 463 kts 119°
2026-04-20 18:49 55.09118 -1.85654 33398 ft 463 kts 119°
2026-04-20 18:49 55.07498 -1.80786 33751 ft 464 kts 119°
2026-04-20 18:49 55.05873 -1.75911 34092 ft 465 kts 119°
2026-04-20 18:49 55.04239 -1.71025 34410 ft 467 kts 119°
2026-04-20 18:50 55.02647 -1.66091 34723 ft 467 kts 117°
2026-04-20 18:50 55.01155 -1.61066 35083 ft 465 kts 116°
2026-04-20 18:50 54.99743 -1.56004 35459 ft 464 kts 114°
2026-04-20 18:50 54.98362 -1.50922 35711 ft 466 kts 114°
2026-04-20 18:51 54.96971 -1.45824 35969 ft 467 kts 115°
2026-04-20 18:51 54.95577 -1.40803 36247 ft 467 kts 115°
2026-04-20 18:51 54.94143 -1.35746 36563 ft 466 kts 116°
2026-04-20 18:51 54.92688 -1.30700 36831 ft 467 kts 116°
2026-04-20 18:52 54.91221 -1.25660 37069 ft 468 kts 116°
2026-04-20 18:52 54.89747 -1.20618 37320 ft 468 kts 116°
2026-04-20 18:52 54.86802 -1.10539 37383 ft 467 kts 116°
2026-04-20 18:53 54.83885 -1.00549 37374 ft 467 kts 116°
2026-04-20 18:53 54.80955 -0.90525 37373 ft 466 kts 116°
2026-04-20 18:54 54.78014 -0.80514 37378 ft 467 kts 116°
2026-04-20 18:54 54.75055 -0.70522 37384 ft 467 kts 116°
2026-04-20 18:55 54.71435 -0.61213 37374 ft 468 kts 128°
2026-04-20 18:55 54.67420 -0.52446 37373 ft 468 kts 128°
2026-04-20 18:56 54.63373 -0.43625 37373 ft 468 kts 128°
2026-04-20 18:56 54.59319 -0.34826 37372 ft 468 kts 128°
2026-04-20 18:57 54.55264 -0.26040 37369 ft 469 kts 128°
2026-04-20 18:57 54.51221 -0.17323 37368 ft 469 kts 128°
2026-04-20 18:58 54.47145 -0.08569 37368 ft 469 kts 128°
2026-04-20 18:58 54.43061 0.00180 37363 ft 469 kts 128°
2026-04-20 18:59 54.38971 0.08918 37365 ft 470 kts 128°
2026-04-20 18:59 54.34891 0.17588 37371 ft 470 kts 128°
2026-04-20 19:00 54.30774 0.26290 37374 ft 470 kts 128°
2026-04-20 19:00 54.26656 0.34988 37375 ft 470 kts 128°
2026-04-20 19:01 54.22540 0.43661 37369 ft 471 kts 129°
2026-04-20 19:01 54.18406 0.52337 37368 ft 471 kts 129°
2026-04-20 19:02 54.14256 0.60995 37367 ft 471 kts 129°
2026-04-20 19:02 54.10138 0.69568 37363 ft 471 kts 129°
2026-04-20 19:03 54.05974 0.78205 37362 ft 472 kts 129°
2026-04-20 19:03 54.01808 0.86830 37364 ft 471 kts 129°
2026-04-20 19:04 53.97642 0.95435 37357 ft 472 kts 129°
2026-04-20 19:04 53.93488 1.03952 37349 ft 472 kts 129°
2026-04-20 19:05 53.89284 1.12525 37354 ft 472 kts 129°
2026-04-20 19:05 53.85082 1.21093 37360 ft 472 kts 129°
2026-04-20 19:06 53.80880 1.29646 37353 ft 473 kts 129°
2026-04-20 19:06 53.76857 1.38343 37344 ft 472 kts 121°
2026-04-20 19:07 53.74094 1.48370 37344 ft 471 kts 111°
2026-04-20 19:07 53.71618 1.58612 37332 ft 471 kts 111°
2026-04-20 19:08 53.67865 1.73962 37332 ft 472 kts 111°
2026-04-20 19:09 53.65352 1.84202 37335 ft 473 kts 112°
2026-04-20 19:09 53.62851 1.94365 37335 ft 473 kts 111°
2026-04-20 19:10 53.60316 2.04595 37339 ft 473 kts 112°
2026-04-20 19:10 53.57771 2.14817 37330 ft 474 kts 111°
2026-04-20 19:11 53.55221 2.25035 37340 ft 473 kts 111°
2026-04-20 19:11 53.52682 2.35164 37325 ft 473 kts 111°
2026-04-20 19:12 53.50116 2.45342 37327 ft 473 kts 112°
2026-04-20 19:12 53.47540 2.55510 37311 ft 473 kts 112°
2026-04-20 19:13 53.44951 2.65676 37326 ft 473 kts 112°
2026-04-20 19:13 53.42373 2.75744 37318 ft 473 kts 112°
2026-04-20 19:14 53.39778 2.85860 37322 ft 472 kts 112°
2026-04-20 19:14 53.37179 2.95963 37313 ft 472 kts 112°
2026-04-20 19:15 53.34574 3.06042 37317 ft 472 kts 112°
2026-04-20 19:15 53.31951 3.16110 37307 ft 472 kts 112°
2026-04-20 19:16 53.29324 3.26142 37311 ft 471 kts 112°
2026-04-20 19:16 53.26602 3.36006 37304 ft 471 kts 119°
2026-04-20 19:17 53.22483 3.44453 37308 ft 471 kts 139°
2026-04-20 19:17 53.17008 3.50388 37288 ft 471 kts 151°
2026-04-20 19:18 53.11279 3.55717 37295 ft 471 kts 151°
2026-04-20 19:18 53.05591 3.61022 37299 ft 472 kts 151°
2026-04-20 19:19 52.99908 3.66472 37302 ft 471 kts 145°
2026-04-20 19:19 52.95155 3.73876 37296 ft 470 kts 127°
2026-04-20 19:20 52.91276 3.82626 37265 ft 472 kts 126°
2026-04-20 19:20 52.87364 3.91388 37263 ft 474 kts 126°
2026-04-20 19:21 52.83461 4.00089 37278 ft 474 kts 126°
2026-04-20 19:21 52.79529 4.08847 37273 ft 475 kts 126°
2026-04-20 19:22 52.75588 4.17597 37275 ft 475 kts 126°
2026-04-20 19:22 52.71642 4.26322 37275 ft 474 kts 126°
2026-04-20 19:23 52.67722 4.34969 37252 ft 474 kts 127°
2026-04-20 19:23 52.63762 4.43672 37252 ft 475 kts 127°
2026-04-20 19:24 52.59798 4.52360 37258 ft 475 kts 127°
2026-04-20 19:24 52.55826 4.61026 37248 ft 475 kts 127°
2026-04-20 19:25 52.51865 4.69635 37242 ft 475 kts 127°
2026-04-20 19:25 52.47873 4.78273 37249 ft 475 kts 127°
2026-04-20 19:26 52.43878 4.86901 37249 ft 475 kts 127°
2026-04-20 19:26 52.39872 4.95522 37243 ft 476 kts 127°
2026-04-20 19:27 52.35878 5.04070 37248 ft 476 kts 127°
2026-04-20 19:27 52.32336 5.13156 37248 ft 475 kts 114°
2026-04-20 19:28 52.29551 5.22933 37246 ft 475 kts 114°
2026-04-20 19:28 52.26748 5.32693 37248 ft 475 kts 114°
2026-04-20 19:29 52.23931 5.42446 37249 ft 475 kts 115°
2026-04-20 19:29 52.21100 5.52176 37261 ft 474 kts 115°
2026-04-20 19:30 52.18298 5.61797 37146 ft 471 kts 115°
2026-04-20 19:30 52.16881 5.66641 36193 ft 477 kts 115°
2026-04-20 19:30 52.15445 5.71541 35270 ft 482 kts 115°
2026-04-20 19:30 52.13999 5.76472 34441 ft 483 kts 115°
2026-04-20 19:31 52.12550 5.81417 33486 ft 485 kts 115°
2026-04-20 19:31 52.11103 5.86356 32578 ft 484 kts 115°
2026-04-20 19:31 52.09654 5.91292 31699 ft 482 kts 115°
2026-04-20 19:31 52.08217 5.96166 30999 ft 474 kts 115°
2026-04-20 19:32 52.06799 6.00961 30259 ft 467 kts 115°
2026-04-20 19:32 52.05392 6.05692 29205 ft 463 kts 115°
2026-04-20 19:32 52.03998 6.10359 27817 ft 456 kts 115°
2026-04-20 19:32 52.02626 6.14948 26324 ft 448 kts 116°
2026-04-20 19:33 52.01279 6.19457 24941 ft 439 kts 116°
2026-04-20 19:33 51.99984 6.23790 23715 ft 426 kts 116°
2026-04-20 19:33 51.98702 6.28056 22339 ft 416 kts 116°
2026-04-20 19:33 51.97453 6.32207 21725 ft 403 kts 115°
2026-04-20 19:34 51.96235 6.36256 21077 ft 395 kts 115°
2026-04-20 19:34 51.95041 6.40222 20478 ft 389 kts 115°
2026-04-20 19:34 51.93861 6.44133 19889 ft 383 kts 115°
2026-04-20 19:34 51.92699 6.47987 19325 ft 379 kts 115°
2026-04-20 19:35 51.91501 6.51771 18791 ft 376 kts 120°
2026-04-20 19:35 51.89954 6.55170 18219 ft 375 kts 130°
2026-04-20 19:35 51.88053 6.58031 17689 ft 372 kts 140°
2026-04-20 19:35 51.85916 6.60256 17180 ft 370 kts 150°
2026-04-20 19:36 51.83553 6.61837 16738 ft 366 kts 160°
2026-04-20 19:36 51.81176 6.63050 16607 ft 351 kts 160°
2026-04-20 19:36 51.78866 6.64076 16469 ft 339 kts 165°
2026-04-20 19:36 51.76591 6.64742 16338 ft 327 kts 168°
2026-04-20 19:37 51.74377 6.65266 16207 ft 316 kts 169°
2026-04-20 19:37 51.72232 6.65721 16077 ft 306 kts 169°
2026-04-20 19:37 51.70153 6.66149 15945 ft 297 kts 169°
2026-04-20 19:37 51.68133 6.66571 15816 ft 288 kts 169°
2026-04-20 19:38 51.66173 6.66994 15679 ft 280 kts 168°
2026-04-20 19:38 51.64291 6.67410 15556 ft 273 kts 168°
2026-04-20 19:38 51.62425 6.67825 15350 ft 269 kts 168°
2026-04-20 19:38 51.60573 6.68238 15089 ft 268 kts 169°
2026-04-20 19:39 51.58728 6.68648 14814 ft 268 kts 169°
2026-04-20 19:39 51.56886 6.69058 14547 ft 267 kts 169°
2026-04-20 19:39 51.55051 6.69464 14274 ft 266 kts 169°
2026-04-20 19:39 51.53220 6.69870 14017 ft 265 kts 169°
2026-04-20 19:40 51.51395 6.70276 13724 ft 264 kts 169°
2026-04-20 19:40 51.49576 6.70681 13422 ft 264 kts 169°
2026-04-20 19:40 51.47761 6.71088 13117 ft 263 kts 168°
2026-04-20 19:40 51.45960 6.71574 12810 ft 262 kts 167°
2026-04-20 19:41 51.44172 6.72113 12507 ft 261 kts 166°
2026-04-20 19:41 51.42391 6.72674 12249 ft 259 kts 166°
2026-04-20 19:41 51.40642 6.73167 12195 ft 260 kts 173°
2026-04-20 19:41 51.38832 6.72939 12202 ft 265 kts 192°
2026-04-20 19:42 51.37138 6.71740 12207 ft 269 kts 213°
2026-04-20 19:42 51.35775 6.69686 12208 ft 271 kts 232°
2026-04-20 19:42 51.34638 6.67275 12207 ft 272 kts 232°
2026-04-20 19:42 51.33495 6.64867 12201 ft 272 kts 232°
2026-04-20 19:43 51.32352 6.62468 12220 ft 272 kts 232°
2026-04-20 19:43 51.31206 6.60070 12219 ft 271 kts 232°
2026-04-20 19:43 51.30058 6.57671 12218 ft 271 kts 232°
2026-04-20 19:43 51.28911 6.55277 12220 ft 271 kts 232°
2026-04-20 19:44 51.27780 6.52926 12220 ft 270 kts 232°
2026-04-20 19:44 51.26629 6.50539 12220 ft 271 kts 232°
2026-04-20 19:44 51.25505 6.48119 12216 ft 272 kts 238°
2026-04-20 19:44 51.24969 6.45263 12219 ft 271 kts 270°
2026-04-20 19:45 51.25312 6.42348 12219 ft 268 kts 296°
2026-04-20 19:45 51.26371 6.39959 12220 ft 263 kts 321°
2026-04-20 19:45 51.27916 6.38494 12219 ft 258 kts 345°
2026-04-20 19:45 51.29673 6.38184 12188 ft 253 kts
2026-04-20 19:46 51.31320 6.39005 11887 ft 247 kts 32°
2026-04-20 19:46 51.32592 6.40795 11564 ft 244 kts 54°
2026-04-20 19:46 51.33548 6.43061 11146 ft 247 kts 56°
2026-04-20 19:46 51.34521 6.45341 10737 ft 250 kts 56°
2026-04-20 19:47 51.35507 6.47624 10245 ft 256 kts 55°
2026-04-20 19:47 51.36532 6.49985 9713 ft 261 kts 54°
2026-04-20 19:47 51.37461 6.52496 9157 ft 266 kts 69°
2026-04-20 19:47 51.37715 6.55436 8626 ft 272 kts 94°
2026-04-20 19:48 51.37117 6.58317 8157 ft 277 kts 121°
2026-04-20 19:48 51.35810 6.60434 8014 ft 261 kts 146°
2026-04-20 19:48 51.34168 6.61473 7734 ft 252 kts 170°
2026-04-20 19:48 51.32438 6.61342 7355 ft 251 kts 196°
2026-04-20 19:49 51.30905 6.60092 7219 ft 248 kts 221°
2026-04-20 19:49 51.29755 6.58053 7215 ft 248 kts 234°
2026-04-20 19:49 51.28742 6.55818 7218 ft 249 kts 237°
2026-04-20 19:49 51.27765 6.53535 7221 ft 249 kts 238°
2026-04-20 19:50 51.26797 6.51245 7220 ft 249 kts 238°
2026-04-20 19:50 51.25826 6.48953 7219 ft 249 kts 237°
2026-04-20 19:50 51.25165 6.47456 7221 ft 249 kts 236°
2026-04-20 19:50 51.23780 6.44526 7224 ft 249 kts 234°
2026-04-20 19:51 51.22717 6.42342 7224 ft 249 kts 233°
2026-04-20 19:51 51.21650 6.40159 7219 ft 249 kts 233°
2026-04-20 19:51 51.20586 6.37975 7219 ft 249 kts 233°
2026-04-20 19:51 51.19524 6.35791 7218 ft 249 kts 233°
2026-04-20 19:52 51.18461 6.33609 7217 ft 249 kts 233°
2026-04-20 19:52 51.17751 6.32169 7223 ft 249 kts 233°
2026-04-20 19:52 51.16678 6.29999 7220 ft 249 kts 233°
2026-04-20 19:52 51.15255 6.27119 7212 ft 250 kts 233°
2026-04-20 19:53 51.14181 6.24947 7214 ft 250 kts 233°
2026-04-20 19:53 51.13107 6.22775 7210 ft 250 kts 233°
2026-04-20 19:53 51.12031 6.20599 7193 ft 250 kts 233°
2026-04-20 19:53 51.10929 6.18463 7194 ft 251 kts 226°
2026-04-20 19:54 51.09961 6.17400 7191 ft 252 kts 203°
2026-04-20 19:54 51.08282 6.16957 7191 ft 250 kts 172°
2026-04-20 19:54 51.06687 6.17929 7190 ft 246 kts 140°
2026-04-20 19:54 51.05661 6.20026 7195 ft 240 kts 108°
2026-04-20 19:55 51.05424 6.22597 7077 ft 234 kts 86°
2026-04-20 19:55 51.05491 6.25179 6818 ft 234 kts 83°
2026-04-20 19:55 51.05622 6.27758 6566 ft 233 kts 76°
2026-04-20 19:55 51.06241 6.30082 6353 ft 228 kts 53°
2026-04-20 19:56 51.07206 6.32088 6158 ft 229 kts 50°
2026-04-20 19:56 51.08182 6.34083 5976 ft 229 kts 50°
2026-04-20 19:56 51.09141 6.36059 5821 ft 229 kts 50°
2026-04-20 19:56 51.10111 6.38063 5664 ft 229 kts 50°
2026-04-20 19:57 51.11080 6.40066 5510 ft 229 kts 50°
2026-04-20 19:57 51.12049 6.42070 5380 ft 229 kts 51°
2026-04-20 19:57 51.13020 6.44079 5128 ft 228 kts 51°
2026-04-20 19:57 51.13986 6.46081 4821 ft 228 kts 51°
2026-04-20 19:58 51.14948 6.48074 4507 ft 226 kts 51°
2026-04-20 19:58 51.15905 6.50060 4198 ft 225 kts 50°
2026-04-20 19:58 51.16854 6.52030 3884 ft 223 kts 50°
2026-04-20 19:58 51.17796 6.53987 3580 ft 222 kts 50°
2026-04-20 19:59 51.18728 6.55925 3278 ft 219 kts 51°
2026-04-20 19:59 51.19646 6.57835 2966 ft 214 kts 51°
2026-04-20 19:59 51.20536 6.59688 2677 ft 206 kts 51°
2026-04-20 19:59 51.21367 6.61421 2408 ft 191 kts 51°
2026-04-20 20:00 51.22145 6.63043 2178 ft 179 kts 51°
2026-04-20 20:00 51.22881 6.64579 1912 ft 170 kts 51°
2026-04-20 20:00 51.23565 6.66006 1690 ft 152 kts 51°
2026-04-20 20:00 51.24158 6.67247 1483 ft 131 kts 51°
2026-04-20 20:01 51.24689 6.68355 1324 ft 122 kts 50°
2026-04-20 20:01 51.25195 6.69412 1149 ft 118 kts 51°
2026-04-20 20:01 51.25689 6.70445 980 ft 117 kts 51°
2026-04-20 20:01 51.26191 6.71493 810 ft 120 kts 51°
2026-04-20 20:02 51.26694 6.72546 600 ft 119 kts 52°
2026-04-20 20:02 51.27181 6.73576 479 ft 118 kts 53°
2026-04-20 20:02 51.27683 6.74626 306 ft 118 kts 51°
2026-04-20 20:02 51.28176 6.75655 151 ft 116 kts 51°